Temperature
4 4 4 4 5 5 5 5 5 5 5 6 6 6 6 6 7 7 7 7 7 7 8 8 8 8 8 8 8 8 8 8 8 8 8 8 8 8 8 8 8 8 8
3 3 4 4 4 4 4 5 5 5 5 5 5 5 6 6 6 6 7 7 7 7 7 7 7 7 8 7 7 7 7 7 7 7 7 7 7 7 7 7 7 8 8
2 2 3 3 3 4 4 4 4 4 5 5 5 5 5 5 5 5 6 6 6 6 7 7 7 7 7 7 7 7 7 7 7 7 7 7 6 6 6 7 7 7 7
2 2 2 2 3 3 3 3 4 4 4 4 4 4 4 5 5 5 5 5 5 6 6 6 6 7 7 7 7 7 7 7 7 7 7 7 7 6 6 6 6 6 7
1 1 2 2 2 2 2 3 3 3 3 3 4 4 4 4 4 4 4 5 5 5 5 6 6 6 6 6 6 6 6 6 7 6 6 6 6 6 6 5 6 6 6
1 1 1 2 2 2 2 2 2 2 3 3 3 3 3 3 3 4 4 4 4 4 5 5 5 5 5 6 6 6 6 6 6 6 6 6 6 6 6 6 5 5 6
0 0 1 1 1 1 1 1 1 2 2 2 2 2 3 3 3 3 3 4 4 4 4 5 5 5 5 5 5 5 5 5 5 5 5 5 5 6 6 5 5 5 5
-0 0 0 1 1 1 1 1 1 1 1 2 2 2 2 2 3 3 3 3 3 4 4 4 4 4 4 5 5 5 5 5 5 5 5 5 5 5 5 5 5 4 4
-1 -0 -0 0 0 0 0 0 0 1 1 1 1 1 1 2 2 2 2 2 3 3 3 4 4 4 4 4 4 4 4 4 4 4 4 4 4 4 4 5 5 4 4
-1 -1 -1 -0 -0 -0 -0 -0 0 0 0 0 0 0 1 1 1 2 2 2 2 2 2 3 3 3 3 3 3 4 4 4 4 4 4 4 4 4 4 4 4 4 4
-1 -1 -1 -1 -1 -0 -0 -0 -1 -0 -0 -0 -0 0 0 0 1 1 1 1 1 2 2 2 2 3 3 3 3 3 3 3 3 3 3 3 3 3 3 3 3 3 3
-2 -2 -1 -1 -1 -1 -1 -1 -1 -1 -1 -1 -1 -1 -0 -0 0 0 0 1 1 1 1 2 2 2 2 2 2 2 3 3 3 3 3 3 3 3 3 3 3 3 3
-2 -2 -2 -2 -2 -2 -2 -2 -1 -1 -1 -1 -1 -1 -1 -1 -1 -1 -0 0 0 1 1 1 1 1 2 2 2 2 2 2 2 2 2 2 2 2 2 2 2 2 2
-2 -3 -2 -2 -2 -2 -2 -2 -2 -2 -2 -2 -2 -1 -1 -1 -1 -1 -1 -1 -0 0 0 0 1 1 1 1 1 1 1 1 1 1 1 2 1 2 2 2 2 2 2
-3 -3 -3 -3 -3 -2 -2 -2 -2 -2 -2 -2 -2 -2 -2 -2 -2 -1 -1 -1 -1 -1 -0 -0 0 0 0 1 1 1 1 1 1 1 1 1 1 1 1 1 1 1 1
-3 -3 -3 -3 -3 -3 -3 -3 -3 -3 -3 -3 -3 -2 -2 -2 -2 -2 -2 -2 -1 -1 -1 -1 -0 -0 -0 0 0 -0 0 0 0 0 0 1 1 1 0 1 0 0 0
-4 -4 -4 -4 -4 -3 -3 -3 -3 -3 -3 -3 -3 -3 -3 -3 -3 -2 -2 -2 -2 -2 -1 -1 -1 -1 -0 -0 -0 -1 -1 -0 -0 -0 -0 -0 0 -0 -0 -0 -0 -0 -0
-4 -4 -4 -4 -4 -4 -4 -4 -4 -4 -4 -3 -3 -3 -3 -3 -3 -3 -3 -3 -2 -2 -2 -2 -1 -1 -1 -1 -1 -1 -1 -1 -1 -1 -1 -1 -0 -0 -1 -1 -1 -1 -1
-4 -4 -4 -4 -4 -4 -4 -4 -4 -4 -4 -4 -4 -4 -4 -4 -3 -3 -3 -3 -3 -2 -2 -2 -2 -2 -2 -1 -1 -2 -2 -1 -1 -1 -1 -1 -1 -1 -1 -1 -1 -1 -1
-5 -5 -5 -5 -5 -5 -4 -4 -4 -5 -5 -5 -5 -4 -4 -4 -4 -4 -4 -3 -3 -3 -3 -2 -2 -2 -2 -2 -2 -2 -2 -2 -2 -2 -2 -2 -1 -1 -2 -2 -2 -2 -1
-5 -5 -5 -5 -5 -5 -5 -5 -5 -5 -5 -5 -5 -5 -5 -5 -4 -4 -4 -4 -4 -3 -3 -3 -3 -3 -3 -3 -3 -3 -3 -2 -2 -2 -2 -2 -2 -2 -2 -2 -2 -2 -2
-6 -6 -6 -6 -6 -6 -6 -5 -5 -6 -6 -6 -5 -5 -5 -5 -5 -5 -5 -5 -4 -4 -4 -4 -3 -3 -3 -3 -3 -3 -3 -3 -3 -3 -2 -2 -2 -2 -2 -2 -2 -2 -2
-6 -6 -6 -6 -6 -6 -6 -6 -6 -6 -6 -6 -6 -6 -6 -6 -6 -5 -5 -5 -5 -5 -5 -5 -4 -4 -4 -4 -3 -3 -3 -3 -3 -3 -3 -3 -3 -3 -3 -3 -3 -3 -3
-6 -6 -6 -6 -6 -7 -7 -7 -7 -7 -7 -6 -6 -6 -6 -6 -6 -6 -6 -6 -6 -6 -6 -5 -5 -5 -5 -4 -4 -4 -4 -4 -4 -4 -3 -3 -3 -3 -3 -3 -3 -3 -3
-7 -7 -7 -7 -7 -7 -7 -7 -7 -7 -7 -7 -7 -7 -7 -7 -7 -7 -7 -7 -6 -6 -6 -6 -6 -6 -5 -5 -5 -4 -4 -4 -4 -4 -4 -4 -4 -4 -4 -4 -4 -4 -4
-7 -7 -7 -7 -7 -7 -7 -7 -7 -7 -7 -7 -7 -8 -8 -8 -7 -7 -7 -7 -7 -7 -7 -7 -6 -6 -6 -6 -5 -5 -5 -5 -5 -5 -5 -5 -5 -5 -5 -5 -5 -5 -4
Wind_Speed
2 2 2 2 2 2 2 1 1 2 1 1 1 2 2 1 1 2 3 3 3 4 4 3 3 3 3 4 4 3 4 3 3 3 2 2 2 2 2 3 4 4 4
2 3 3 3 2 2 1 1 1 2 1 0 1 2 2 2 2 2 2 3 3 3 4 3 3 2 3 3 4 4 3 2 3 3 3 1 1 1 1 1 1 2 3
0 2 2 3 3 3 2 1 1 1 2 1 0 0 0 0 1 1 1 2 2 2 3 4 4 3 3 4 4 4 3 4 2 2 3 2 2 1 1 0 1 1 1
1 1 1 2 3 3 2 2 2 2 2 2 1 2 1 1 1 1 1 1 1 1 2 3 4 3 3 4 4 3 3 4 3 1 0 1 2 2 1 1 1 0 0
1 1 1 1 2 2 2 3 3 3 3 3 2 1 1 1 1 1 2 1 1 2 1 2 3 3 2 3 4 4 4 3 3 2 1 1 1 1 2 2 1 1 1
1 1 1 1 2 2 2 3 3 4 4 4 3 1 0 1 1 2 2 1 1 0 1 1 2 2 2 3 4 4 4 3 2 2 1 2 2 2 1 2 2 2 2
1 1 1 1 2 2 2 3 3 3 3 3 3 1 1 2 2 2 2 2 1 1 1 0 1 2 2 3 3 4 4 4 4 3 2 1 1 1 1 2 2 2 2
1 1 1 1 1 2 2 2 2 3 3 3 3 2 1 1 1 1 1 2 2 2 1 1 1 1 2 2 3 3 3 3 4 3 3 1 1 1 1 2 2 1 2
3 2 2 1 1 2 2 2 1 2 3 3 2 1 1 0 1 1 1 1 1 1 1 1 1 1 1 2 2 3 3 3 3 3 3 2 1 1 1 2 3 3 3
4 3 2 2 2 2 2 2 1 2 2 2 2 1 0 0 1 0 1 1 2 1 1 1 1 2 2 1 3 3 3 3 3 3 3 2 1 1 1 1 1 2 3
4 3 3 3 2 2 2 2 2 2 2 2 2 1 1 0 1 1 1 2 2 2 2 2 2 3 3 2 4 4 4 4 3 3 3 3 2 2 2 1 1 1 1
5 4 3 3 2 3 3 3 2 2 2 2 2 2 1 0 1 2 2 2 2 2 2 2 2 3 3 3 4 5 4 5 5 4 4 4 3 3 2 2 2 2 2
5 4 4 3 3 3 3 3 3 3 2 2 2 1 2 1 1 2 2 2 2 2 2 2 2 2 3 3 4 5 5 5 5 5 5 5 5 4 3 3 3 2 2
4 4 4 4 4 4 3 3 4 3 3 2 2 1 2 2 2 2 2 2 2 2 2 3 3 2 3 3 3 4 4 5 4 5 5 5 6 6 5 4 4 3 2
5 4 4 4 4 4 4 4 4 4 3 2 2 2 2 2 2 2 2 2 2 3 3 3 2 2 2 3 3 4 4 5 4 4 5 5 6 7 6 5 4 4 3
6 5 4 4 4 4 4 4 4 4 3 2 3 3 2 2 2 2 2 2 2 2 2 2 2 2 3 3 4 4 4 4 5 5 4 4 5 6 7 6 6 5 5
6 5 5 4 4 5 4 5 4 4 3 3 3 3 2 2 2 2 2 2 2 2 2 2 2 3 3 3 4 4 3 4 4 5 5 4 4 5 4 5 5 5 7
5 5 5 5 5 4 4 4 3 3 3 3 3 3 3 3 2 2 2 3 2 2 2 3 3 3 3 3 4 4 3 3 4 5 5 6 5 5 5 4 4 4 4
4 4 4 4 4 5 4 3 3 3 3 3 4 3 3 3 2 3 3 3 2 2 2 3 3 2 3 4 4 4 3 3 4 4 4 5 5 7 7 5 5 4 4
4 4 4 4 4 5 4 3 3 4 4 4 4 3 3 2 3 3 3 2 2 2 2 2 2 2 3 5 5 4 3 3 3 3 4 6 6 7 7 5 5 6 5
4 4 4 4 5 5 4 3 4 4 5 4 4 3 3 3 3 2 2 1 1 1 1 2 2 2 3 4 5 5 3 4 3 4 4 4 6 7 7 6 6 7 5
4 4 4 5 5 5 3 4 5 5 4 4 4 4 4 3 3 1 1 1 1 1 1 2 2 2 3 4 4 5 6 5 4 4 4 4 6 6 6 5 6 7 5
4 4 4 5 5 5 3 4 6 5 4 3 3 3 4 3 3 2 1 1 0 1 2 2 2 2 3 3 5 6 6 5 3 3 5 5 6 5 4 4 4 3 3
4 4 4 5 6 6 5 4 5 4 3 3 3 3 3 3 2 2 2 1 1 2 2 2 2 3 3 3 3 3 3 4 3 3 4 4 4 3 2 3 2 2 3
4 3 4 5 6 6 5 5 5 3 3 3 3 3 3 2 2 2 2 2 2 3 3 3 3 3 3 4 6 4 3 2 2 1 1 0 1 1 1 1 1 2 2
3 4 4 5 6 5 5 5 4 3 2 3 3 2 2 2 2 2 3 4 4 5 6 6 5 4 5 6 6 6 4 3 1 0 0 1 1 2 2 2 2 1 2
Wind_Direction
323 4 20 22 19 23 42 50 17 356 30 153 172 182 184 167 122 90 122 119 139 138 134 130 135 130 145 149 135 138 141 133 128 112 85 43 35 68 91 112 112 108 112
1 5 19 23 9 12 3 34 19 11 1 230 215 206 199 188 161 102 92 105 127 138 145 138 149 138 141 134 133 130 141 151 133 131 127 118 27 3 9 65 108 111 117
261 328 8 10 360 3 352 353 7 14 11 10 84 106 135 121 121 132 109 60 96 131 140 152 148 146 150 162 164 154 134 161 165 142 141 152 190 206 311 335 108 92 68
320 320 2 6 349 340 344 357 16 28 21 31 92 138 163 194 196 191 168 57 65 91 136 151 151 156 163 172 176 158 150 155 169 182 79 146 154 164 200 302 335 9 236
277 264 285 328 345 345 5 21 20 27 26 22 29 103 88 211 175 161 161 156 46 45 111 150 153 164 178 179 175 166 159 162 166 172 162 115 107 116 164 209 244 302 277
289 282 308 31 14 7 25 31 26 16 19 19 14 24 101 120 142 159 181 177 175 110 23 143 158 172 184 193 184 176 170 173 169 174 172 169 179 189 178 193 210 234 260
298 334 339 16 2 4 8 20 22 8 7 13 360 323 251 197 173 183 197 190 174 207 238 202 172 188 201 204 189 174 177 178 180 185 195 203 213 191 194 182 207 242 262
307 305 318 351 357 357 358 7 13 1 355 358 341 323 252 203 198 196 204 210 211 223 262 233 180 204 202 204 188 178 184 180 184 192 187 193 223 192 184 193 189 225 265
299 300 313 321 324 334 329 323 345 349 342 334 329 342 354 334 241 215 195 212 237 261 301 293 203 224 206 207 189 181 186 183 192 196 193 196 217 211 225 206 193 195 230
303 298 296 298 302 301 313 326 340 326 319 324 311 319 287 243 271 237 252 241 244 259 234 261 221 228 217 214 188 188 187 184 197 197 192 199 215 209 213 218 230 223 223
292 284 289 297 298 302 315 325 311 316 320 315 304 325 310 302 271 260 253 253 254 252 229 241 224 209 202 212 195 195 190 188 197 203 200 209 210 209 216 223 222 234 229
296 293 297 309 312 310 313 309 299 292 289 293 297 303 316 347 295 278 271 265 252 255 248 248 244 225 210 216 201 199 201 197 201 205 205 214 210 204 214 219 228 236 236
306 309 309 305 306 310 310 310 314 299 290 287 290 306 308 294 269 275 268 263 258 255 249 239 239 229 219 221 211 202 206 208 210 209 211 215 207 214 217 218 224 235 250
302 312 312 307 308 311 313 315 317 307 300 297 288 282 274 265 261 257 266 261 252 253 247 246 237 234 232 233 222 211 210 212 216 218 217 215 212 216 214 218 220 222 231
312 307 307 311 313 319 320 316 314 315 313 308 296 275 273 269 260 261 259 259 253 260 256 259 250 256 240 233 222 220 219 216 219 223 222 219 222 227 224 225 218 214 226
299 302 308 310 309 311 313 316 315 310 312 300 293 291 288 280 264 257 254 258 263 256 255 252 243 254 258 258 258 247 225 221 219 224 228 226 221 227 230 234 230 226 224
306 306 307 304 304 303 301 295 293 303 310 302 298 304 300 278 267 266 268 265 267 271 270 257 241 254 261 260 259 260 239 221 222 224 227 237 232 228 218 228 233 239 240
314 314 313 313 311 304 304 303 311 314 307 303 301 305 303 288 268 254 256 262 263 260 261 269 259 256 266 268 261 267 241 222 225 226 224 226 225 224 217 214 226 234 240
300 298 302 305 314 316 313 321 329 330 326 318 307 299 291 284 269 254 249 252 251 260 259 264 255 250 272 275 273 272 236 236 237 235 226 222 224 230 224 216 218 231 249
317 317 321 328 330 325 330 334 325 328 319 312 307 305 294 282 275 267 261 258 251 257 277 289 280 264 269 271 270 270 242 244 249 248 237 234 232 232 226 215 213 224 238
324 330 337 334 324 327 339 333 326 314 307 309 313 319 314 293 275 262 268 259 256 274 278 288 294 285 283 283 271 267 256 244 246 252 249 238 234 235 234 232 225 231 231
329 334 336 328 327 334 339 328 319 310 313 317 322 323 318 309 308 281 279 269 225 238 274 289 301 296 295 293 283 279 275 271 251 250 249 244 238 239 237 236 235 231 228
316 325 325 324 328 332 332 312 308 316 320 324 323 320 318 316 316 308 283 275 261 243 271 272 282 298 305 297 291 286 286 282 271 258 260 259 246 240 233 238 231 219 208
315 320 325 324 322 323 321 303 306 314 317 315 315 314 312 312 317 310 297 281 255 251 262 270 277 287 298 295 287 277 273 284 281 268 257 252 243 238 234 222 212 205 204
316 320 316 310 309 315 317 315 312 310 311 308 306 307 305 301 311 305 286 274 261 253 253 254 255 264 275 284 295 291 281 275 268 281 293 242 219 222 223 224 229 219 207
311 314 311 307 308 312 313 315 314 311 301 303 303 300 298 298 300 301 316 312 296 300 291 284 281 286 289 301 301 302 300 298 269 338 198 233 237 234 231 230 240 233 222
Height
1507 1507 1507 1506 1506 1507 1507 1507 1508 1509 1509 1510 1511 1512 1513 1514 1516 1517 1519 1520 1522 1524 1526 1528 1530 1532 1533 1534 1536 1539 1541 1542 1543 1544 1545 1547 1549 1550 1551 1552 1553 1553 1554
1505 1505 1504 1504 1505 1505 1505 1505 1505 1506 1507 1508 1509 1510 1510 1512 1513 1514 1516 1517 1519 1521 1523 1525 1527 1529 1531 1532 1534 1536 1537 1539 1540 1542 1543 1545 1547 1547 1549 1550 1551 1551 1552
1504 1504 1503 1503 1503 1503 1503 1503 1504 1504 1505 1505 1506 1507 1508 1509 1511 1512 1513 1514 1516 1518 1520 1522 1524 1526 1528 1530 1531 1533 1534 1536 1538 1540 1541 1542 1542 1544 1546 1546 1548 1549 1550
1504 1503 1502 1502 1502 1502 1502 1501 1502 1502 1503 1503 1504 1504 1504 1505 1507 1508 1510 1512 1514 1516 1518 1520 1522 1524 1526 1528 1529 1531 1532 1533 1535 1537 1538 1540 1540 1541 1542 1544 1544 1545 1546
1502 1502 1501 1501 1501 1501 1501 1500 1500 1500 1500 1501 1501 1501 1502 1503 1504 1506 1507 1509 1511 1512 1514 1517 1519 1521 1523 1524 1526 1528 1529 1531 1532 1533 1535 1537 1538 1538 1539 1539 1541 1542 1543
1501 1501 1501 1500 1500 1500 1499 1498 1498 1498 1498 1498 1498 1498 1499 1500 1501 1503 1504 1505 1507 1509 1511 1513 1515 1517 1519 1521 1523 1525 1527 1528 1530 1531 1532 1533 1534 1535 1536 1536 1537 1538 1539
1499 1498 1498 1498 1498 1497 1497 1496 1496 1496 1496 1496 1496 1496 1496 1497 1498 1499 1501 1501 1503 1505 1507 1509 1511 1513 1516 1518 1520 1522 1523 1525 1526 1528 1529 1531 1532 1533 1533 1534 1534 1535 1535
1498 1497 1496 1496 1496 1496 1495 1495 1494 1494 1494 1494 1493 1493 1493 1494 1495 1497 1498 1499 1500 1502 1504 1505 1507 1510 1512 1514 1516 1518 1520 1522 1523 1525 1526 1527 1528 1530 1531 1531 1532 1532 1532
1498 1497 1496 1495 1495 1494 1494 1493 1492 1492 1492 1492 1491 1491 1491 1491 1493 1494 1495 1496 1497 1499 1500 1501 1504 1506 1508 1510 1512 1514 1516 1518 1519 1521 1522 1524 1525 1526 1527 1529 1529 1530 1528
1498 1497 1496 1494 1494 1493 1492 1491 1490 1490 1490 1489 1489 1488 1488 1488 1489 1490 1491 1493 1494 1495 1496 1498 1500 1502 1504 1506 1508 1510 1512 1514 1515 1517 1518 1520 1521 1522 1524 1525 1525 1526 1526
1497 1495 1494 1493 1493 1492 1490 1489 1489 1488 1488 1487 1487 1486 1485 1486 1487 1487 1488 1489 1491 1492 1493 1495 1496 1499 1500 1502 1504 1506 1508 1509 1511 1513 1514 1515 1517 1518 1519 1520 1521 1522 1522
1496 1494 1493 1491 1490 1489 1488 1488 1487 1486 1485 1485 1484 1483 1483 1483 1484 1484 1485 1486 1487 1488 1489 1491 1492 1494 1496 1498 1499 1501 1503 1505 1506 1508 1510 1511 1513 1514 1515 1516 1517 1518 1518
1495 1493 1491 1490 1488 1487 1486 1485 1484 1483 1483 1482 1481 1481 1480 1480 1481 1481 1482 1483 1484 1485 1486 1487 1488 1490 1492 1493 1495 1497 1498 1500 1502 1503 1505 1506 1508 1509 1510 1511 1512 1513 1514
1493 1491 1489 1488 1487 1485 1484 1483 1482 1481 1481 1479 1478 1478 1478 1478 1478 1479 1479 1480 1481 1481 1482 1483 1484 1486 1488 1489 1491 1492 1494 1496 1497 1499 1501 1502 1503 1504 1505 1506 1507 1508 1509
1492 1490 1488 1487 1485 1483 1482 1481 1480 1479 1478 1477 1476 1476 1476 1476 1476 1476 1477 1477 1478 1479 1479 1480 1481 1482 1484 1485 1487 1488 1490 1491 1492 1494 1496 1497 1498 1500 1501 1502 1503 1504 1505
1491 1489 1487 1485 1484 1482 1480 1479 1477 1476 1476 1474 1473 1473 1473 1473 1473 1473 1474 1474 1475 1475 1476 1476 1477 1479 1480 1481 1483 1484 1485 1486 1488 1489 1491 1492 1493 1495 1496 1497 1498 1500 1500
1489 1487 1486 1484 1482 1480 1478 1476 1475 1474 1473 1472 1471 1470 1470 1470 1470 1470 1471 1471 1471 1472 1473 1473 1475 1475 1476 1477 1479 1480 1481 1482 1483 1484 1485 1486 1488 1489 1491 1492 1493 1494 1496
1488 1486 1484 1483 1481 1479 1476 1474 1472 1471 1470 1469 1468 1467 1466 1466 1467 1467 1467 1468 1468 1469 1469 1470 1471 1472 1473 1474 1475 1476 1477 1478 1478 1479 1480 1482 1482 1484 1485 1486 1487 1489 1490
1487 1485 1483 1481 1479 1477 1474 1472 1470 1468 1467 1466 1465 1464 1463 1463 1463 1464 1465 1465 1466 1466 1467 1468 1468 1469 1469 1470 1471 1472 1473 1473 1474 1475 1476 1477 1478 1479 1481 1482 1483 1483 1484
1486 1484 1481 1479 1477 1474 1472 1470 1468 1466 1464 1463 1462 1462 1461 1460 1460 1460 1461 1462 1462 1463 1464 1464 1465 1465 1466 1467 1468 1468 1469 1469 1470 1471 1471 1473 1473 1475 1476 1477 1478 1478 1479
1484 1482 1479 1477 1475 1472 1470 1468 1466 1464 1463 1461 1460 1459 1458 1458 1458 1458 1458 1459 1459 1459 1460 1460 1461 1462 1462 1463 1464 1465 1466 1466 1466 1467 1467 1468 1469 1470 1471 1472 1473 1474 1475
1482 1480 1477 1475 1473 1471 1468 1465 1464 1462 1461 1459 1458 1457 1456 1456 1455 1455 1455 1455 1456 1456 1457 1457 1457 1459 1459 1460 1461 1462 1463 1463 1463 1463 1463 1463 1464 1465 1466 1467 1468 1469 1470
1480 1477 1475 1473 1471 1469 1466 1464 1462 1460 1458 1457 1455 1455 1454 1453 1452 1452 1452 1452 1452 1453 1453 1454 1454 1455 1456 1457 1457 1458 1459 1459 1459 1459 1459 1460 1460 1461 1461 1462 1463 1463 1464
1477 1475 1473 1471 1468 1466 1464 1462 1460 1458 1456 1454 1453 1452 1451 1450 1450 1450 1449 1449 1450 1450 1451 1451 1451 1452 1453 1453 1454 1454 1454 1455 1455 1455 1455 1456 1456 1456 1457 1457 1458 1458 1459
1475 1473 1471 1468 1466 1464 1462 1460 1458 1456 1454 1452 1451 1450 1449 1448 1447 1447 1447 1447 1447 1448 1448 1449 1449 1449 1449 1450 1451 1451 1451 1451 1451 1451 1451 1451 1452 1452 1452 1453 1453 1454 1454
1472 1470 1468 1466 1464 1461 1459 1457 1455 1453 1452 1450 1449 1448 1447 1446 1445 1445 1445 1445 1445 1446 1446 1446 1447 1447 1447 1448 1448 1448 1448 1448 1448 1448 1447 1447 1448 1448 1448 1448 1449 1449 1450